This demonstration page uses our WeatherBlox Daily Observations layout. Learn more.

Left ArrowRight Arrow

Hourly Observations for January 17, 2015

Temp ( °F °C ) Dew Point ( °F °C ) Humidity (%) Winds ( mph kmh ) Pressure ( in mb ) Visibility ( mi km ) Precip ( " mm )
12:52 am 00:52 Mostly Cloudy 45 7.2 29 -1.7 54 54 SSE 10 17 29.69 1005 10 16 0.00 0.00
1:52 am 01:52 Mostly Cloudy 47 8.3 27 -2.8 46 46 SSE 7 11 29.69 1005 10 16 0.00 0.00
2:52 am 02:52 Cloudy 47 8.3 27 -2.8 46 46 VRB 6 9 29.69 1005 10 16 0.00 0.00
3:52 am 03:52 Cloudy 45 7.2 27 -2.8 49 49 SSW 9 15 29.68 1005 10 16 0.00 0.00
4:52 am 04:52 Cloudy 44 6.7 27 -2.8 51 51 Calm 29.68 1005 10 16 0.00 0.00
5:52 am 05:52 Cloudy 42 5.6 29 -1.7 60 60 WNW 8 13 29.70 1006 10 16 0.00 0.00
6:52 am 06:52 Cloudy 41 5 29 -1.7 62 62 NW 10 17 29.73 1007 10 16 0.00 0.00
7:52 am 07:52 Cloudy 41 5 30 -1.1 65 65 NW 7 11 29.75 1007 10 16 0.00 0.00
8:52 am 08:52 Mostly Cloudy 41 5 31 -0.6 67 67 NW 6 9 29.79 1009 10 16 0.00 0.00
9:52 am 09:52 Mostly Cloudy 46 7.8 32 0 58 58 NW 21 33 29.83 1010 10 16 0.00 0.00
10:52 am 10:52 Partly Cloudy 48 8.9 32 0 54 54 NW 30 48 29.86 1011 10 16 0.00 0.00
11:52 am 11:52 Partly Cloudy 50 10 31 -0.6 48 48 NW 28 44 29.88 1012 10 16 0.00 0.00
12:52 pm 12:52 Partly Cloudy 51 10.6 29 -1.7 43 43 WNW 29 46 29.87 1011 10 16 0.00 0.00
1:52 pm 13:52 Mostly Sunny 51 10.6 27 -2.8 39 39 NW 29 46 29.87 1012 10 16 0.00 0.00
2:52 pm 14:52 Mostly Cloudy 49 9.4 28 -2.2 44 44 NW 26 43 29.87 1012 10 16 0.00 0.00
3:52 pm 15:52 Cloudy 47 8.3 30 -1.1 52 52 NW 26 43 29.90 1013 10 16 0.00 0.03
4:52 pm 16:52 Mostly Cloudy 42 5.6 32 0 68 68 NW 18 30 29.94 1014 10 16 0.00 0.03
5:52 pm 17:52 Partly Cloudy 42 5.6 31 -0.6 65 65 W 15 24 29.96 1014 10 16 0.00 0.00
6:52 pm 18:52 Partly Cloudy 41 5 29 -1.7 62 62 WNW 13 20 29.96 1015 10 16 0.00 0.00
7:52 pm 19:52 Partly Cloudy 39 3.9 27 -2.8 62 62 W 9 15 29.96 1015 10 16 0.00 0.00
8:52 pm 20:52 Partly Cloudy 40 4.4 27 -2.8 60 60 W 17 28 29.96 1015 10 16 0.00 0.00
9:52 pm 21:52 Clear 39 3.9 26 -3.3 60 60 W 17 28 29.96 1014 10 16 0.00 0.00
10:52 pm 22:52 Clear 40 4.4 25 -3.9 55 55 W 16 26 29.95 1014 10 16 0.00 0.00
11:52 pm 23:52 Clear 39 3.9 25 -3.9 57 57 W 16 26 29.95 1014 10 16 0.00 0.00

Powered by AerisWeather